This is the latest recevied weather packets stored in our database for station/object IK4NOW-13. If no packets are shown the sender has not sent any weather packets the latest 10 day(s).
| Time | Temp. | Humidity | Pressure | Rain* | Wind** | Luminosity | Snow |
|---|---|---|---|---|---|---|---|
| 1777052100 | 19.44° C | 54% | 1015.4 hPa | - | - | - | - |
| 1777049395 | 20.56° C | 54% | 1015.3 hPa | - | - | - | - |
| 1777046690 | 21.67° C | 53% | 1015.6 hPa | - | - | - | - |
| 1777043984 | 22.78° C | 52% | 1015.9 hPa | - | - | - | - |
| 1777041279 | 22.78° C | 52% | 1016.4 hPa | - | - | - | - |
| 1777038579 | 22.78° C | 52% | 1016.8 hPa | - | - | - | - |
| 1777035869 | 22.22° C | 53% | 1017.3 hPa | - | - | - | - |
| 1777033163 | 21.67° C | 54% | 1017.9 hPa | - | - | - | - |
| 1777030458 | 21.67° C | 54% | 1018.2 hPa | - | - | - | - |
| 1777027753 | 22.22° C | 51% | 1018.4 hPa | - | - | - | - |
| 1777025048 | 21.11° C | 52% | 1018.7 hPa | - | - | - | - |
| 1777022942 | 20° C | 54% | 1018.9 hPa | - | - | - | - |
| 1777020238 | 18.33° C | 56% | 1019.3 hPa | - | - | - | - |
| 1777017533 | 16.67° C | 58% | 1019.4 hPa | - | - | - | - |
| 1777014829 | 15° C | 61% | 1019.4 hPa | - | - | - | - |
| 1777012125 | 13.33° C | 65% | 1019.6 hPa | - | - | - | - |
| 1777009420 | 8.33° C | 63% | 1019.6 hPa | - | - | - | - |
| 1777006716 | 7.22° C | 63% | 1019.5 hPa | - | - | - | - |
| 1777004011 | 6.67° C | 63% | 1019.4 hPa | - | - | - | - |
| 1777001307 | 6.67° C | 63% | 1019.3 hPa | - | - | - | - |
| 1776998602 | 7.22° C | 62% | 1019.4 hPa | - | - | - | - |
| 1776995898 | 8.33° C | 61% | 1019.5 hPa | - | - | - | - |
| 1776993194 | 8.89° C | 61% | 1019.6 hPa | - | - | - | - |
| 1776990489 | 9.44° C | 61% | 1019.7 hPa | - | - | - | - |
| 1776987785 | 9.44° C | 61% | 1019.6 hPa | - | - | - | - |
* Rain since midnight (hover to see other rain measurements)
** Current wind speed in m/s (hover to see current wind gust speed)